Time,TemperatureF,DewpointF,PressureIn,WindDirection,WindDirectionDegrees,WindSpeedMPH,WindSpeedGustMPH,Humidity,HourlyPrecipIn,Conditions,Clouds,dailyrainin,SoftwareType,DateUTC
2018-05-21 00:02:00,59.5,59.0,30.18,NNE,33,0.0,0.0,98,0.00,,,0.00,meteohub,2018-05-21 04:02:00,
2018-05-21 00:07:00,59.4,58.8,30.18,NNE,32,0.0,0.0,98,0.00,,,0.00,meteohub,2018-05-21 04:07:00,
2018-05-21 00:12:00,59.4,58.8,30.18,NNE,33,0.0,0.0,98,0.00,,,0.00,meteohub,2018-05-21 04:12:00,
2018-05-21 00:17:00,59.4,58.8,30.17,NNE,33,0.0,0.0,98,0.00,,,0.00,meteohub,2018-05-21 04:17:00,
2018-05-21 00:22:00,59.4,58.8,30.17,NNE,33,0.0,0.0,98,0.00,,,0.00,meteohub,2018-05-21 04:22:00,
2018-05-21 00:27:00,59.5,59.0,30.17,NNE,33,0.0,0.0,98,0.00,,,0.00,meteohub,2018-05-21 04:27:00,
2018-05-21 00:32:00,59.5,59.0,30.17,NNE,33,0.0,0.0,98,0.00,,,0.00,meteohub,2018-05-21 04:32:00,
2018-05-21 00:37:00,59.5,59.0,30.17,NNE,33,0.0,0.0,98,0.00,,,0.00,meteohub,2018-05-21 04:37:00,
2018-05-21 00:42:00,59.5,59.0,30.17,NNE,33,0.0,0.0,98,0.00,,,0.00,meteohub,2018-05-21 04:42:00,
2018-05-21 00:47:00,59.5,59.0,30.17,NNE,33,0.0,0.0,98,0.00,,,0.00,meteohub,2018-05-21 04:47:00,
2018-05-21 00:52:00,59.5,59.0,30.16,NNE,33,0.0,0.0,98,0.00,,,0.00,meteohub,2018-05-21 04:52:00,
2018-05-21 00:57:00,59.5,59.0,30.16,NNE,33,0.0,0.0,98,0.00,,,0.00,meteohub,2018-05-21 04:57:00,
2018-05-21 01:02:00,59.5,59.0,30.16,NNE,32,0.0,0.0,98,0.00,,,0.00,meteohub,2018-05-21 05:02:00,
2018-05-21 01:07:00,59.5,59.0,30.16,NNE,33,0.0,0.0,98,0.00,,,0.00,meteohub,2018-05-21 05:07:00,
2018-05-21 01:12:00,59.5,59.0,30.15,NNE,32,0.0,0.0,98,0.00,,,0.00,meteohub,2018-05-21 05:12:00,
2018-05-21 01:17:00,59.4,58.8,30.15,NNE,33,0.0,0.0,98,0.00,,,0.00,meteohub,2018-05-21 05:17:00,
2018-05-21 01:22:00,59.4,58.8,30.15,NNE,32,0.0,0.0,98,0.00,,,0.00,meteohub,2018-05-21 05:22:00,
2018-05-21 01:27:00,59.4,58.8,30.15,NNE,33,0.0,0.0,98,0.00,,,0.00,meteohub,2018-05-21 05:27:00,
2018-05-21 01:32:00,59.4,58.8,30.14,NNE,33,0.0,0.0,98,0.00,,,0.00,meteohub,2018-05-21 05:32:00,
2018-05-21 01:37:00,59.5,59.0,30.14,NNE,33,0.0,0.0,98,0.00,,,0.00,meteohub,2018-05-21 05:37:00,
2018-05-21 01:42:00,59.4,58.8,30.14,NNE,33,0.0,0.0,98,0.00,,,0.00,meteohub,2018-05-21 05:42:00,
2018-05-21 01:47:00,59.4,58.8,30.14,NNE,33,0.0,0.0,98,0.00,,,0.00,meteohub,2018-05-21 05:47:00,
2018-05-21 01:52:00,59.4,58.8,30.14,NNE,32,0.0,0.0,98,0.00,,,0.00,meteohub,2018-05-21 05:52:00,
2018-05-21 01:57:00,59.4,58.8,30.13,NNE,33,0.0,0.0,98,0.00,,,0.00,meteohub,2018-05-21 05:57:00,
2018-05-21 02:02:00,59.4,58.8,30.13,NNE,33,0.0,0.0,98,0.00,,,0.00,meteohub,2018-05-21 06:02:00,
2018-05-21 02:07:00,59.4,58.8,30.13,NNE,32,0.0,0.0,98,0.00,,,0.00,meteohub,2018-05-21 06:07:00,
2018-05-21 02:12:00,59.5,59.0,30.13,NNE,33,0.0,0.0,98,0.00,,,0.00,meteohub,2018-05-21 06:12:00,
2018-05-21 02:17:00,59.5,59.0,30.13,NNE,33,0.0,0.0,98,0.00,,,0.00,meteohub,2018-05-21 06:17:00,
2018-05-21 02:22:00,59.4,58.8,30.12,NNE,32,0.0,0.0,98,0.00,,,0.00,meteohub,2018-05-21 06:22:00,
2018-05-21 02:27:00,59.4,58.8,30.12,NNE,33,0.0,0.0,98,0.00,,,0.00,meteohub,2018-05-21 06:27:00,
2018-05-21 02:31:00,59.4,58.8,30.12,NNE,33,0.0,0.0,98,0.00,,,0.00,meteohub,2018-05-21 06:31:00,
2018-05-21 02:37:00,59.4,58.8,30.12,NNE,32,0.0,0.0,98,0.00,,,0.00,meteohub,2018-05-21 06:37:00,
2018-05-21 02:42:00,59.2,58.6,30.12,NNE,33,0.0,0.0,98,0.00,,,0.00,meteohub,2018-05-21 06:42:00,
2018-05-21 02:47:00,59.2,58.6,30.11,NNE,32,0.0,0.0,98,0.01,,,0.01,meteohub,2018-05-21 06:47:00,
2018-05-21 02:52:00,59.2,58.6,30.11,NNE,33,0.0,0.0,98,0.01,,,0.01,meteohub,2018-05-21 06:52:00,
2018-05-21 02:57:00,59.2,58.6,30.11,NNE,33,0.0,0.0,98,0.01,,,0.01,meteohub,2018-05-21 06:57:00,
2018-05-21 03:02:00,59.0,58.5,30.11,NNE,33,0.0,0.0,98,0.01,,,0.01,meteohub,2018-05-21 07:02:00,
2018-05-21 03:07:00,58.8,58.3,30.11,NNE,33,0.0,0.0,98,0.01,,,0.01,meteohub,2018-05-21 07:07:00,
2018-05-21 03:12:00,58.8,58.3,30.11,NNE,33,0.0,0.0,98,0.01,,,0.01,meteohub,2018-05-21 07:12:00,
2018-05-21 03:17:00,58.8,58.3,30.12,NNE,33,0.0,0.0,98,0.01,,,0.01,meteohub,2018-05-21 07:17:00,
2018-05-21 03:22:00,58.8,58.3,30.12,NNE,33,0.0,0.0,98,0.01,,,0.01,meteohub,2018-05-21 07:22:00,
2018-05-21 03:27:00,58.8,58.3,30.12,NNE,32,0.0,0.0,98,0.01,,,0.01,meteohub,2018-05-21 07:27:00,
2018-05-21 03:32:00,58.6,58.1,30.11,NNE,33,0.0,0.0,98,0.01,,,0.01,meteohub,2018-05-21 07:32:00,
2018-05-21 03:33:00,58.6,58.1,30.11,NNE,33,0.0,0.0,98,0.01,,,0.01,meteohub,2018-05-21 07:33:00,
2018-05-21 03:38:00,58.8,58.3,30.12,NNE,33,0.0,0.0,98,0.01,,,0.01,meteohub,2018-05-21 07:38:00,
2018-05-21 03:43:00,59.2,58.6,30.12,NNE,33,0.0,0.0,98,0.00,,,0.01,meteohub,2018-05-21 07:43:00,
2018-05-21 03:48:00,59.2,58.8,30.11,NNE,33,0.0,0.0,99,0.00,,,0.01,meteohub,2018-05-21 07:48:00,
2018-05-21 03:53:00,59.4,58.8,30.11,NNE,33,0.0,0.0,98,0.00,,,0.01,meteohub,2018-05-21 07:53:00,
2018-05-21 03:58:00,59.4,58.8,30.12,NNE,32,0.0,0.0,98,0.00,,,0.01,meteohub,2018-05-21 07:58:00,
2018-05-21 04:03:00,59.4,59.0,30.12,NNE,33,0.0,0.0,99,0.00,,,0.01,meteohub,2018-05-21 08:03:00,
2018-05-21 04:08:00,59.5,59.2,30.11,NNE,32,0.0,0.0,99,0.00,,,0.01,meteohub,2018-05-21 08:08:00,
2018-05-21 04:13:00,59.5,59.2,30.11,NNE,33,0.0,0.0,99,0.00,,,0.01,meteohub,2018-05-21 08:13:00,
2018-05-21 04:18:00,59.5,59.2,30.11,NNE,33,0.0,0.0,99,0.00,,,0.01,meteohub,2018-05-21 08:18:00,
2018-05-21 04:23:00,59.5,59.2,30.11,NNE,33,0.0,0.0,99,0.00,,,0.01,meteohub,2018-05-21 08:23:00,
2018-05-21 04:28:00,59.5,59.2,30.12,NNE,33,0.0,0.0,99,0.00,,,0.01,meteohub,2018-05-21 08:28:00,
2018-05-21 04:33:00,59.5,59.2,30.12,NNE,33,0.0,0.0,99,0.00,,,0.01,meteohub,2018-05-21 08:33:00,
2018-05-21 04:38:00,59.7,59.4,30.11,NNE,33,0.0,0.0,99,0.00,,,0.01,meteohub,2018-05-21 08:38:00,
2018-05-21 04:43:00,59.7,59.4,30.11,NNE,33,0.0,0.0,99,0.00,,,0.01,meteohub,2018-05-21 08:43:00,
2018-05-21 04:48:00,59.9,59.5,30.12,NNE,33,0.0,0.0,99,0.00,,,0.01,meteohub,2018-05-21 08:48:00,
2018-05-21 04:53:00,60.1,59.7,30.12,NNE,33,0.0,0.0,99,0.00,,,0.01,meteohub,2018-05-21 08:53:00,
2018-05-21 04:59:00,60.1,59.7,30.12,NNE,33,0.0,0.0,99,0.00,,,0.01,meteohub,2018-05-21 08:59:00,
2018-05-21 05:04:00,60.1,59.7,30.12,NNE,33,0.0,0.0,99,0.00,,,0.01,meteohub,2018-05-21 09:04:00,
2018-05-21 05:09:00,60.3,59.9,30.12,NNE,33,0.0,0.0,99,0.00,,,0.01,meteohub,2018-05-21 09:09:00,
2018-05-21 05:14:00,60.4,60.1,30.12,NNE,33,0.0,0.0,99,0.00,,,0.01,meteohub,2018-05-21 09:14:00,
2018-05-21 05:19:00,60.4,60.1,30.12,NNE,33,0.0,0.0,99,0.00,,,0.01,meteohub,2018-05-21 09:19:00,
2018-05-21 05:24:00,60.4,60.1,30.12,NNE,33,0.0,0.0,99,0.00,,,0.01,meteohub,2018-05-21 09:24:00,
2018-05-21 05:29:00,60.4,60.1,30.12,NNE,33,0.0,0.0,99,0.00,,,0.01,meteohub,2018-05-21 09:29:00,
2018-05-21 05:34:00,60.3,59.9,30.12,NNE,33,0.0,0.0,99,0.00,,,0.01,meteohub,2018-05-21 09:34:00,
2018-05-21 05:39:00,60.3,59.9,30.12,NNE,32,0.0,0.0,99,0.00,,,0.01,meteohub,2018-05-21 09:39:00,
2018-05-21 05:44:00,60.3,59.9,30.12,NNE,33,0.0,0.0,99,0.00,,,0.01,meteohub,2018-05-21 09:44:00,
2018-05-21 05:49:00,60.3,59.9,30.12,NNE,33,0.0,0.0,99,0.00,,,0.01,meteohub,2018-05-21 09:49:00,
2018-05-21 05:54:00,60.4,60.1,30.13,NNE,33,0.0,0.0,99,0.00,,,0.01,meteohub,2018-05-21 09:54:00,
2018-05-21 05:59:00,60.4,60.1,30.13,NNE,33,0.0,0.0,99,0.00,,,0.01,meteohub,2018-05-21 09:59:00,
2018-05-21 06:04:00,60.4,60.1,30.13,NNE,33,0.0,0.0,99,0.00,,,0.01,meteohub,2018-05-21 10:04:00,
2018-05-21 06:09:00,60.3,59.9,30.13,NNE,32,0.0,0.0,99,0.00,,,0.01,meteohub,2018-05-21 10:09:00,
2018-05-21 06:14:00,60.3,59.9,30.13,NNE,33,0.0,0.0,99,0.00,,,0.01,meteohub,2018-05-21 10:14:00,
2018-05-21 06:19:00,60.3,59.9,30.13,NNE,33,0.0,0.0,99,0.00,,,0.01,meteohub,2018-05-21 10:19:00,
2018-05-21 06:24:00,60.3,59.9,30.14,NNE,32,0.0,0.0,99,0.00,,,0.01,meteohub,2018-05-21 10:24:00,
2018-05-21 06:29:00,60.3,59.9,30.14,NNE,33,0.0,0.0,99,0.00,,,0.01,meteohub,2018-05-21 10:29:00,
2018-05-21 06:34:00,60.3,59.9,30.14,NNE,33,0.0,0.0,99,0.00,,,0.01,meteohub,2018-05-21 10:34:00,
2018-05-21 06:39:00,60.3,59.9,30.14,NNE,33,0.0,0.0,99,0.00,,,0.01,meteohub,2018-05-21 10:39:00,
2018-05-21 06:44:00,60.3,59.9,30.15,NNE,33,0.0,0.0,99,0.00,,,0.01,meteohub,2018-05-21 10:44:00,
2018-05-21 06:49:00,60.3,59.9,30.15,NNE,33,0.0,0.0,99,0.00,,,0.01,meteohub,2018-05-21 10:49:00,
2018-05-21 06:54:00,60.3,59.9,30.15,NNE,33,0.0,0.0,99,0.00,,,0.01,meteohub,2018-05-21 10:54:00,
2018-05-21 06:59:00,60.3,59.9,30.15,NNE,33,0.0,0.0,99,0.00,,,0.01,meteohub,2018-05-21 10:59:00,
2018-05-21 07:05:00,60.3,59.9,30.15,NNE,33,0.0,0.0,99,0.00,,,0.01,meteohub,2018-05-21 11:05:00,
2018-05-21 07:10:00,60.4,60.1,30.15,NNE,33,0.0,0.0,99,0.00,,,0.01,meteohub,2018-05-21 11:10:00,
2018-05-21 07:15:00,60.4,60.1,30.16,NNE,33,0.0,0.0,99,0.00,,,0.01,meteohub,2018-05-21 11:15:00,
2018-05-21 07:20:00,60.4,60.1,30.16,NNE,33,0.0,0.0,99,0.00,,,0.01,meteohub,2018-05-21 11:20:00,
2018-05-21 07:25:00,60.6,60.3,30.16,NNE,33,0.0,0.0,99,0.00,,,0.01,meteohub,2018-05-21 11:25:00,
2018-05-21 07:30:00,60.8,60.4,30.16,NNE,33,0.0,0.0,99,0.00,,,0.01,meteohub,2018-05-21 11:30:00,
2018-05-21 07:35:00,60.8,60.4,30.16,NNE,33,0.0,0.0,99,0.00,,,0.01,meteohub,2018-05-21 11:35:00,
2018-05-21 07:40:00,61.0,60.6,30.16,NNE,33,0.0,0.0,99,0.00,,,0.01,meteohub,2018-05-21 11:40:00,
2018-05-21 07:45:00,61.2,60.8,30.16,NNE,32,0.0,0.0,99,0.00,,,0.01,meteohub,2018-05-21 11:45:00,
2018-05-21 07:50:00,61.2,60.8,30.16,NNE,33,0.0,0.0,99,0.00,,,0.01,meteohub,2018-05-21 11:50:00,
2018-05-21 07:55:00,61.3,61.0,30.17,NNE,32,0.0,0.0,99,0.00,,,0.01,meteohub,2018-05-21 11:55:00,
2018-05-21 08:00:00,61.5,61.2,30.16,NNE,33,0.0,0.0,99,0.00,,,0.01,meteohub,2018-05-21 12:00:00,
2018-05-21 08:05:00,61.7,61.3,30.16,NNE,33,0.0,0.0,99,0.00,,,0.01,meteohub,2018-05-21 12:05:00,
2018-05-21 08:10:00,61.9,61.5,30.16,NNE,33,0.0,0.0,99,0.00,,,0.01,meteohub,2018-05-21 12:10:00,
2018-05-21 08:15:00,62.2,61.9,30.16,NNE,32,0.0,0.0,99,0.00,,,0.01,meteohub,2018-05-21 12:15:00,
2018-05-21 08:20:00,62.2,61.9,30.17,NNE,33,0.0,0.0,99,0.00,,,0.01,meteohub,2018-05-21 12:20:00,
2018-05-21 08:26:00,62.2,61.9,30.17,NE,36,0.0,0.0,99,0.00,,,0.01,meteohub,2018-05-21 12:26:00,
2018-05-21 08:31:00,62.2,61.9,30.17,NNE,31,0.0,0.0,99,0.00,,,0.01,meteohub,2018-05-21 12:31:00,
2018-05-21 08:36:00,62.2,61.9,30.17,NNE,33,0.0,0.0,99,0.00,,,0.01,meteohub,2018-05-21 12:36:00,
2018-05-21 08:41:00,62.2,61.9,30.17,NNE,33,0.0,0.0,99,0.00,,,0.01,meteohub,2018-05-21 12:41:00,
2018-05-21 08:46:00,62.6,62.2,30.17,NE,34,0.0,0.0,99,0.00,,,0.01,meteohub,2018-05-21 12:46:00,
2018-05-21 08:51:00,62.8,62.4,30.17,NNE,33,0.0,0.0,99,0.00,,,0.01,meteohub,2018-05-21 12:51:00,
2018-05-21 08:53:00,63.0,62.6,30.17,NNE,32,0.0,0.0,99,0.00,,,0.01,meteohub,2018-05-21 12:53:00,
2018-05-21 08:58:00,63.1,62.8,30.17,NE,34,0.0,0.0,99,0.00,,,0.01,meteohub,2018-05-21 12:58:00,
2018-05-21 09:03:00,63.3,63.0,30.17,NE,34,0.0,0.0,99,0.00,,,0.01,meteohub,2018-05-21 13:03:00,
2018-05-21 09:08:00,63.7,63.3,30.17,NE,34,0.0,0.0,99,0.00,,,0.01,meteohub,2018-05-21 13:08:00,
2018-05-21 09:13:00,63.7,63.1,30.17,NNE,33,0.0,0.0,98,0.00,,,0.01,meteohub,2018-05-21 13:13:00,
2018-05-21 09:18:00,64.0,63.5,30.17,NE,34,0.0,0.0,98,0.00,,,0.01,meteohub,2018-05-21 13:18:00,
2018-05-21 09:23:00,64.6,64.0,30.17,NE,34,0.0,0.0,98,0.00,,,0.01,meteohub,2018-05-21 13:23:00,
2018-05-21 09:28:00,64.9,64.4,30.17,NNE,33,0.0,0.0,98,0.00,,,0.01,meteohub,2018-05-21 13:28:00,
2018-05-21 09:33:00,65.7,65.1,30.17,NNE,33,0.0,0.0,98,0.00,,,0.01,meteohub,2018-05-21 13:33:00,
2018-05-21 09:38:00,66.2,65.7,30.17,NE,34,0.0,0.0,98,0.00,,,0.01,meteohub,2018-05-21 13:38:00,
2018-05-21 09:43:00,66.4,65.5,30.17,NNE,24,0.0,0.0,97,0.00,,,0.01,meteohub,2018-05-21 13:43:00,
2018-05-21 09:48:00,66.4,65.1,30.17,NNE,23,0.0,0.0,96,0.00,,,0.01,meteohub,2018-05-21 13:48:00,
2018-05-21 09:53:00,66.6,65.1,30.17,NNE,23,0.0,0.0,95,0.00,,,0.01,meteohub,2018-05-21 13:53:00,
2018-05-21 09:58:00,66.9,65.5,30.17,NNE,23,0.0,0.0,95,0.00,,,0.01,meteohub,2018-05-21 13:58:00,
2018-05-21 10:03:00,67.1,65.3,30.17,NNE,23,0.0,0.0,94,0.00,,,0.01,meteohub,2018-05-21 14:03:00,
2018-05-21 10:08:00,67.3,65.5,30.17,NNE,23,0.0,0.0,94,0.00,,,0.01,meteohub,2018-05-21 14:08:00,
2018-05-21 10:13:00,67.5,65.1,30.17,NNE,25,0.0,0.0,92,0.00,,,0.01,meteohub,2018-05-21 14:13:00,
2018-05-21 10:18:00,67.5,65.1,30.17,NNE,24,0.0,0.0,92,0.00,,,0.01,meteohub,2018-05-21 14:18:00,
2018-05-21 10:23:00,67.8,65.5,30.17,NNE,25,0.0,0.0,92,0.00,,,0.01,meteohub,2018-05-21 14:23:00,
2018-05-21 10:28:00,68.2,65.1,30.17,NNE,23,0.0,0.0,90,0.00,,,0.01,meteohub,2018-05-21 14:28:00,
2018-05-21 10:33:00,68.2,64.2,30.17,NW,324,0.0,0.0,87,0.00,,,0.01,meteohub,2018-05-21 14:33:00,
2018-05-21 10:38:00,68.5,64.6,30.17,NW,324,0.0,0.0,87,0.00,,,0.01,meteohub,2018-05-21 14:38:00,
2018-05-21 10:43:00,69.1,65.1,30.17,NW,307,0.0,0.0,87,0.00,,,0.01,meteohub,2018-05-21 14:43:00,
2018-05-21 10:48:00,69.3,65.3,30.17,SW,219,0.0,0.0,87,0.00,,,0.01,meteohub,2018-05-21 14:48:00,
2018-05-21 10:53:00,69.3,64.6,30.17,SW,219,0.0,0.0,85,0.00,,,0.01,meteohub,2018-05-21 14:53:00,
2018-05-21 10:58:00,69.6,64.9,30.17,SW,219,0.0,0.0,85,0.00,,,0.01,meteohub,2018-05-21 14:58:00,
2018-05-21 11:03:00,70.0,64.9,30.17,WSW,245,0.0,0.0,84,0.00,,,0.01,meteohub,2018-05-21 15:03:00,
2018-05-21 11:08:00,70.3,65.7,30.17,North,352,0.0,0.0,85,0.00,,,0.01,meteohub,2018-05-21 15:08:00,
2018-05-21 11:13:00,70.7,66.4,30.17,North,351,0.0,0.0,86,0.00,,,0.01,meteohub,2018-05-21 15:13:00,
2018-05-21 11:18:00,70.9,66.2,30.17,North,351,0.0,0.0,85,0.00,,,0.01,meteohub,2018-05-21 15:18:00,
2018-05-21 11:23:00,71.8,67.6,30.17,North,352,0.0,0.0,87,0.00,,,0.01,meteohub,2018-05-21 15:23:00,
2018-05-21 11:28:00,72.0,66.2,30.16,NNE,27,0.0,0.0,82,0.00,,,0.01,meteohub,2018-05-21 15:28:00,
2018-05-21 11:33:00,71.2,65.8,30.16,NNE,29,0.0,0.0,83,0.00,,,0.01,meteohub,2018-05-21 15:33:00,
2018-05-21 11:38:00,71.4,66.4,30.17,NNE,28,0.0,0.0,84,0.00,,,0.01,meteohub,2018-05-21 15:38:00,
2018-05-21 11:43:00,71.6,65.5,30.17,NNE,28,0.0,0.0,81,0.00,,,0.01,meteohub,2018-05-21 15:43:00,
2018-05-21 11:48:00,71.8,64.9,30.17,NNE,28,0.0,0.0,79,0.00,,,0.01,meteohub,2018-05-21 15:48:00,
2018-05-21 11:53:00,72.3,65.5,30.17,NNE,29,0.0,0.0,79,0.00,,,0.01,meteohub,2018-05-21 15:53:00,
2018-05-21 11:58:00,72.7,65.5,30.17,NNE,28,0.0,0.0,78,0.00,,,0.01,meteohub,2018-05-21 15:58:00,
2018-05-21 12:03:00,72.9,65.3,30.17,NNE,28,0.0,0.0,77,0.00,,,0.01,meteohub,2018-05-21 16:03:00,
2018-05-21 12:08:00,72.7,63.5,30.17,NNE,28,0.0,0.0,73,0.00,,,0.01,meteohub,2018-05-21 16:08:00,
2018-05-21 12:13:00,72.3,63.9,30.17,SSW,210,0.0,0.0,75,0.00,,,0.01,meteohub,2018-05-21 16:13:00,
2018-05-21 12:18:00,72.3,63.1,30.17,SSW,210,0.0,0.0,73,0.00,,,0.01,meteohub,2018-05-21 16:18:00,
2018-05-21 12:23:00,72.5,64.0,30.17,SSW,210,0.0,0.0,75,0.00,,,0.01,meteohub,2018-05-21 16:23:00,
2018-05-21 12:28:00,73.2,63.7,30.17,SW,215,0.0,0.0,72,0.00,,,0.01,meteohub,2018-05-21 16:28:00,
2018-05-21 12:33:00,73.2,62.1,30.17,West,274,0.0,0.0,68,0.00,,,0.01,meteohub,2018-05-21 16:33:00,
2018-05-21 12:38:00,73.9,64.4,30.16,WNW,284,0.0,1.0,72,0.00,,,0.01,meteohub,2018-05-21 16:38:00,
2018-05-21 12:43:00,74.5,63.7,30.16,SW,217,0.0,1.0,69,0.00,,,0.01,meteohub,2018-05-21 16:43:00,
2018-05-21 12:48:00,74.7,63.0,30.15,SW,217,0.0,1.0,67,0.00,,,0.01,meteohub,2018-05-21 16:48:00,
2018-05-21 12:53:00,75.0,63.0,30.15,West,277,0.0,1.0,66,0.00,,,0.01,meteohub,2018-05-21 16:53:00,
2018-05-21 12:58:00,75.7,63.1,30.15,SW,218,0.0,1.0,65,0.00,,,0.01,meteohub,2018-05-21 16:58:00,
2018-05-21 13:03:00,76.5,64.2,30.15,NE,47,0.0,1.0,66,0.00,,,0.01,meteohub,2018-05-21 17:03:00,
2018-05-21 13:08:00,76.6,64.9,30.15,South,183,0.0,1.0,67,0.00,,,0.01,meteohub,2018-05-21 17:08:00,
2018-05-21 13:13:00,76.8,64.2,30.15,South,180,0.0,2.0,65,0.00,,,0.01,meteohub,2018-05-21 17:13:00,
2018-05-21 13:18:00,76.8,63.7,30.15,NW,307,0.0,2.0,64,0.00,,,0.01,meteohub,2018-05-21 17:18:00,
2018-05-21 13:23:00,77.2,64.0,30.15,WNW,301,0.0,2.0,64,0.00,,,0.01,meteohub,2018-05-21 17:23:00,
2018-05-21 13:28:00,77.4,63.9,30.15,North,351,0.0,2.0,63,0.00,,,0.01,meteohub,2018-05-21 17:28:00,
2018-05-21 13:33:00,77.5,64.4,30.14,North,359,0.0,0.0,64,0.00,,,0.01,meteohub,2018-05-21 17:33:00,
2018-05-21 13:38:00,77.5,63.9,30.14,West,273,0.0,0.0,63,0.00,,,0.01,meteohub,2018-05-21 17:38:00,
2018-05-21 13:43:00,77.5,63.5,30.14,WNW,297,0.0,0.0,62,0.00,,,0.01,meteohub,2018-05-21 17:43:00,
2018-05-21 13:48:00,77.2,63.1,30.14,WNW,296,0.0,0.0,62,0.00,,,0.01,meteohub,2018-05-21 17:48:00,
2018-05-21 13:53:00,77.2,64.0,30.14,SSW,203,0.0,4.0,64,0.00,,,0.01,meteohub,2018-05-21 17:53:00,
2018-05-21 13:58:00,77.4,65.1,30.14,SE,131,3.0,4.0,66,0.00,,,0.01,meteohub,2018-05-21 17:58:00,
2018-05-21 14:03:00,77.0,65.7,30.13,WSW,247,0.0,2.0,68,0.00,,,0.01,meteohub,2018-05-21 18:03:00,
2018-05-21 14:08:00,76.8,64.6,30.13,WNW,299,0.0,4.0,66,0.00,,,0.01,meteohub,2018-05-21 18:08:00,
2018-05-21 14:13:00,76.6,65.3,30.13,WNW,284,1.0,4.0,68,0.00,,,0.01,meteohub,2018-05-21 18:13:00,
2018-05-21 14:18:00,76.1,65.1,30.13,WNW,291,0.0,1.0,69,0.00,,,0.01,meteohub,2018-05-21 18:18:00,
2018-05-21 14:23:00,76.5,64.8,30.13,WNW,297,0.0,2.0,67,0.00,,,0.01,meteohub,2018-05-21 18:23:00,
2018-05-21 14:28:00,76.3,65.3,30.13,WNW,300,0.0,2.0,69,0.00,,,0.01,meteohub,2018-05-21 18:28:00,
2018-05-21 14:33:00,76.6,64.9,30.12,East,91,2.0,2.0,67,0.00,,,0.01,meteohub,2018-05-21 18:33:00,
2018-05-21 14:38:00,77.0,65.1,30.12,NW,314,0.0,3.0,67,0.00,,,0.01,meteohub,2018-05-21 18:38:00,
2018-05-21 14:43:00,77.0,64.8,30.12,SE,136,2.0,3.0,66,0.00,,,0.01,meteohub,2018-05-21 18:43:00,
2018-05-21 14:48:00,76.8,64.6,30.12,West,271,0.0,7.0,66,0.00,,,0.01,meteohub,2018-05-21 18:48:00,
2018-05-21 14:53:00,76.8,64.9,30.12,WNW,283,0.0,7.0,67,0.00,,,0.01,meteohub,2018-05-21 18:53:00,
2018-05-21 14:58:00,76.6,64.9,30.12,SE,134,0.0,7.0,67,0.00,,,0.01,meteohub,2018-05-21 18:58:00,
2018-05-21 15:03:00,76.5,65.5,30.12,WNW,295,0.0,8.0,69,0.00,,,0.01,meteohub,2018-05-21 19:03:00,
2018-05-21 15:08:00,75.7,64.0,30.11,SE,133,0.0,8.0,67,0.00,,,0.01,meteohub,2018-05-21 19:08:00,
2018-05-21 15:13:00,75.6,64.8,30.11,SE,146,1.0,8.0,69,0.00,,,0.01,meteohub,2018-05-21 19:13:00,
2018-05-21 15:19:00,75.6,64.8,30.12,SE,140,0.0,6.0,69,0.00,,,0.01,meteohub,2018-05-21 19:19:00,
2018-05-21 15:24:00,75.2,64.4,30.12,South,176,3.0,6.0,69,0.00,,,0.01,meteohub,2018-05-21 19:24:00,
2018-05-21 15:29:00,74.8,63.5,30.12,SSW,207,3.0,7.0,68,0.00,,,0.01,meteohub,2018-05-21 19:29:00,
2018-05-21 15:34:00,74.8,64.0,30.12,SE,145,0.0,7.0,69,0.00,,,0.01,meteohub,2018-05-21 19:34:00,
2018-05-21 15:39:00,75.2,64.4,30.11,West,279,1.0,7.0,69,0.00,,,0.01,meteohub,2018-05-21 19:39:00,
2018-05-21 15:44:00,75.6,63.9,30.11,WNW,286,0.0,4.0,67,0.00,,,0.01,meteohub,2018-05-21 19:44:00,
2018-05-21 15:49:00,76.1,64.8,30.11,WSW,257,0.0,6.0,68,0.00,,,0.01,meteohub,2018-05-21 19:49:00,
2018-05-21 15:54:00,76.1,63.9,30.11,NW,307,0.0,6.0,66,0.00,,,0.01,meteohub,2018-05-21 19:54:00,
2018-05-21 15:59:00,76.1,63.9,30.11,SW,215,0.0,2.0,66,0.00,,,0.01,meteohub,2018-05-21 19:59:00,
2018-05-21 16:04:00,75.9,63.3,30.11,NW,304,0.0,2.0,65,0.00,,,0.01,meteohub,2018-05-21 20:04:00,
2018-05-21 16:09:00,75.9,63.3,30.11,NNW,334,0.0,2.0,65,0.00,,,0.01,meteohub,2018-05-21 20:09:00,
2018-05-21 16:14:00,75.7,62.8,30.10,NW,314,0.0,6.0,64,0.00,,,0.01,meteohub,2018-05-21 20:14:00,
2018-05-21 16:19:00,75.7,62.8,30.10,SW,229,0.0,6.0,64,0.00,,,0.01,meteohub,2018-05-21 20:19:00,
2018-05-21 16:24:00,75.7,63.1,30.10,West,270,0.0,6.0,65,0.00,,,0.01,meteohub,2018-05-21 20:24:00,
2018-05-21 16:29:00,75.7,62.2,30.10,WNW,288,0.0,3.0,63,0.00,,,0.01,meteohub,2018-05-21 20:29:00,
2018-05-21 16:34:00,75.4,61.9,30.09,SE,134,0.0,3.0,63,0.00,,,0.01,meteohub,2018-05-21 20:34:00,
2018-05-21 16:39:00,75.4,62.4,30.09,West,275,0.0,2.0,64,0.00,,,0.01,meteohub,2018-05-21 20:39:00,
2018-05-21 16:44:00,75.2,62.2,30.09,SW,236,0.0,3.0,64,0.00,,,0.01,meteohub,2018-05-21 20:44:00,
2018-05-21 16:49:00,75.2,62.2,30.09,WNW,303,1.0,3.0,64,0.00,,,0.01,meteohub,2018-05-21 20:49:00,
2018-05-21 16:54:00,75.2,61.3,30.09,WNW,297,0.0,6.0,62,0.00,,,0.01,meteohub,2018-05-21 20:54:00,
2018-05-21 16:59:00,74.8,61.3,30.09,North,349,0.0,6.0,63,0.00,,,0.01,meteohub,2018-05-21 20:59:00,
2018-05-21 17:04:00,74.5,61.9,30.10,West,275,0.0,6.0,65,0.00,,,0.01,meteohub,2018-05-21 21:04:00,
2018-05-21 17:09:00,74.1,62.1,30.10,NE,41,0.0,3.0,66,0.00,,,0.01,meteohub,2018-05-21 21:09:00,
2018-05-21 17:14:00,73.8,63.0,30.10,SW,233,5.0,5.0,69,0.00,,,0.01,meteohub,2018-05-21 21:14:00,
2018-05-21 17:19:00,73.0,63.5,30.10,SSW,205,0.0,5.0,72,0.00,,,0.01,meteohub,2018-05-21 21:19:00,
2018-05-21 17:24:00,72.7,63.9,30.10,ESE,111,0.0,5.0,74,0.00,,,0.01,meteohub,2018-05-21 21:24:00,
2018-05-21 17:29:00,72.3,63.5,30.10,ESE,113,0.0,5.0,74,0.00,,,0.01,meteohub,2018-05-21 21:29:00,
2018-05-21 17:35:00,72.3,63.9,30.10,SSW,212,0.0,5.0,75,0.00,,,0.01,meteohub,2018-05-21 21:35:00,
2018-05-21 17:40:00,72.3,63.5,30.10,South,176,4.0,5.0,74,0.00,,,0.01,meteohub,2018-05-21 21:40:00,
2018-05-21 17:45:00,72.1,63.0,30.10,SW,215,0.0,5.0,73,0.00,,,0.01,meteohub,2018-05-21 21:45:00,
2018-05-21 17:50:00,72.3,63.1,30.10,SW,221,0.0,5.0,73,0.00,,,0.01,meteohub,2018-05-21 21:50:00,
2018-05-21 17:55:00,72.1,62.6,30.10,NNW,335,0.0,5.0,72,0.00,,,0.01,meteohub,2018-05-21 21:55:00,
2018-05-21 18:00:00,72.1,62.6,30.11,NW,325,0.0,8.0,72,0.00,,,0.01,meteohub,2018-05-21 22:00:00,
2018-05-21 18:05:00,72.0,62.4,30.10,West,269,0.0,8.0,72,0.00,,,0.01,meteohub,2018-05-21 22:05:00,
2018-05-21 18:10:00,72.0,63.1,30.10,WNW,287,0.0,8.0,74,0.00,,,0.01,meteohub,2018-05-21 22:10:00,
2018-05-21 18:15:00,71.8,62.6,30.10,WSW,239,0.0,6.0,73,0.00,,,0.01,meteohub,2018-05-21 22:15:00,
2018-05-21 18:20:00,71.8,62.6,30.10,SSE,152,0.0,6.0,73,0.00,,,0.01,meteohub,2018-05-21 22:20:00,
2018-05-21 18:25:00,71.8,62.6,30.10,WNW,300,0.0,6.0,73,0.00,,,0.01,meteohub,2018-05-21 22:25:00,
2018-05-21 18:30:00,71.4,63.1,30.10,SSW,200,0.0,3.0,75,0.00,,,0.01,meteohub,2018-05-21 22:30:00,
2018-05-21 18:35:00,71.4,63.5,30.10,NE,50,0.0,4.0,76,0.00,,,0.01,meteohub,2018-05-21 22:35:00,
2018-05-21 18:40:00,71.8,63.9,30.09,North,9,0.0,4.0,76,0.00,,,0.01,meteohub,2018-05-21 22:40:00,
2018-05-21 18:45:00,71.8,63.9,30.09,WSW,252,0.0,4.0,76,0.00,,,0.01,meteohub,2018-05-21 22:45:00,
2018-05-21 18:50:00,71.4,63.5,30.09,SSW,200,0.0,3.0,76,0.00,,,0.01,meteohub,2018-05-21 22:50:00,
2018-05-21 18:55:00,71.4,63.9,30.09,SSW,200,0.0,3.0,77,0.00,,,0.01,meteohub,2018-05-21 22:55:00,
2018-05-21 19:00:00,71.4,63.9,30.09,SSW,213,1.0,3.0,77,0.00,,,0.01,meteohub,2018-05-21 23:00:00,
2018-05-21 19:05:00,71.2,64.0,30.09,SW,225,0.0,3.0,78,0.00,,,0.01,meteohub,2018-05-21 23:05:00,
2018-05-21 19:10:00,71.1,63.5,30.10,SSE,165,0.0,3.0,77,0.00,,,0.01,meteohub,2018-05-21 23:10:00,
2018-05-21 19:15:00,70.9,63.7,30.10,South,188,0.0,3.0,78,0.00,,,0.01,meteohub,2018-05-21 23:15:00,
2018-05-21 19:20:00,70.9,63.7,30.10,South,175,0.0,1.0,78,0.00,,,0.01,meteohub,2018-05-21 23:20:00,
2018-05-21 19:25:00,70.7,63.9,30.10,West,267,0.0,1.0,79,0.00,,,0.01,meteohub,2018-05-21 23:25:00,
2018-05-21 19:30:00,70.5,63.7,30.10,South,187,0.0,1.0,79,0.00,,,0.01,meteohub,2018-05-21 23:30:00,
2018-05-21 19:35:00,70.3,63.5,30.10,SE,135,0.0,1.0,79,0.00,,,0.01,meteohub,2018-05-21 23:35:00,
2018-05-21 19:40:00,70.0,63.1,30.10,SE,136,0.0,1.0,79,0.00,,,0.01,meteohub,2018-05-21 23:40:00,
2018-05-21 19:46:00,69.6,63.1,30.10,SE,136,0.0,1.0,80,0.00,,,0.01,meteohub,2018-05-21 23:46:00,
2018-05-21 19:51:00,69.4,63.0,30.10,SE,137,0.0,0.0,80,0.00,,,0.01,meteohub,2018-05-21 23:51:00,
2018-05-21 19:56:00,69.1,63.0,30.10,SE,137,0.0,0.0,81,0.00,,,0.01,meteohub,2018-05-21 23:56:00,
2018-05-21 19:57:00,69.1,63.0,30.10,SE,136,0.0,0.0,81,0.00,,,0.01,meteohub,2018-05-21 23:57:00,
2018-05-21 20:02:00,68.7,63.3,30.11,SE,136,0.0,0.0,83,0.00,,,0.01,meteohub,2018-05-22 00:02:00,
2018-05-21 20:07:00,68.4,63.0,30.11,SE,136,0.0,0.0,83,0.00,,,0.00,meteohub,2018-05-22 00:07:00,
2018-05-21 20:12:00,68.0,63.0,30.11,SE,136,0.0,0.0,84,0.00,,,0.00,meteohub,2018-05-22 00:12:00,
2018-05-21 20:17:00,67.6,63.0,30.11,SE,137,0.0,0.0,85,0.00,,,0.00,meteohub,2018-05-22 00:17:00,
2018-05-21 20:22:00,67.3,63.0,30.11,SE,136,0.0,0.0,86,0.00,,,0.00,meteohub,2018-05-22 00:22:00,
2018-05-21 20:27:00,66.7,62.8,30.11,SE,136,0.0,0.0,87,0.00,,,0.00,meteohub,2018-05-22 00:27:00,
2018-05-21 20:32:00,66.4,62.8,30.12,SE,136,0.0,0.0,88,0.00,,,0.00,meteohub,2018-05-22 00:32:00,
2018-05-21 20:37:00,65.8,62.2,30.12,SE,137,0.0,0.0,88,0.00,,,0.00,meteohub,2018-05-22 00:37:00,
2018-05-21 20:42:00,65.5,61.9,30.12,SE,136,0.0,0.0,88,0.00,,,0.00,meteohub,2018-05-22 00:42:00,
2018-05-21 20:47:00,65.3,62.1,30.12,SE,139,0.0,0.0,89,0.00,,,0.00,meteohub,2018-05-22 00:47:00,
2018-05-21 20:52:00,65.1,61.9,30.12,SE,138,0.0,0.0,89,0.00,,,0.00,meteohub,2018-05-22 00:52:00,
2018-05-21 20:57:00,64.8,61.5,30.12,SE,137,0.0,0.0,89,0.00,,,0.00,meteohub,2018-05-22 00:57:00,
2018-05-21 21:02:00,64.6,61.3,30.12,SE,138,0.0,0.0,89,0.00,,,0.00,meteohub,2018-05-22 01:02:00,
2018-05-21 21:04:00,64.6,61.3,30.12,SE,139,0.0,0.0,89,0.00,,,0.00,meteohub,2018-05-22 01:04:00,
2018-05-21 21:09:00,64.2,61.0,30.12,SE,136,0.0,0.0,89,0.00,,,0.00,meteohub,2018-05-22 01:09:00,
2018-05-21 21:14:00,64.0,60.8,30.12,SE,137,0.0,0.0,89,0.00,,,0.00,meteohub,2018-05-22 01:14:00,
2018-05-21 21:19:00,63.9,60.6,30.13,SE,136,0.0,0.0,89,0.00,,,0.00,meteohub,2018-05-22 01:19:00,
2018-05-21 21:24:00,63.7,60.4,30.13,SE,137,0.0,0.0,89,0.00,,,0.00,meteohub,2018-05-22 01:24:00,
2018-05-21 21:29:00,63.3,60.1,30.13,SE,136,0.0,0.0,89,0.00,,,0.00,meteohub,2018-05-22 01:29:00,
2018-05-21 21:34:00,63.1,60.1,30.13,SE,138,0.0,0.0,90,0.00,,,0.00,meteohub,2018-05-22 01:34:00,
2018-05-21 21:39:00,63.0,59.7,30.13,SE,137,0.0,0.0,89,0.00,,,0.00,meteohub,2018-05-22 01:39:00,
2018-05-21 21:44:00,62.6,59.4,30.13,SE,137,0.0,0.0,89,0.00,,,0.00,meteohub,2018-05-22 01:44:00,
2018-05-21 21:49:00,62.4,59.4,30.13,SE,136,0.0,0.0,90,0.00,,,0.00,meteohub,2018-05-22 01:49:00,
2018-05-21 21:54:00,62.2,59.0,30.13,SE,137,0.0,0.0,89,0.00,,,0.00,meteohub,2018-05-22 01:54:00,
2018-05-21 21:59:00,62.2,59.2,30.13,SE,136,0.0,0.0,90,0.00,,,0.00,meteohub,2018-05-22 01:59:00,
2018-05-21 22:04:00,61.9,59.0,30.14,SE,136,0.0,0.0,90,0.00,,,0.00,meteohub,2018-05-22 02:04:00,
2018-05-21 22:09:00,61.9,59.2,30.14,SE,136,0.0,0.0,91,0.00,,,0.00,meteohub,2018-05-22 02:09:00,
2018-05-21 22:15:00,61.5,58.8,30.14,SE,137,0.0,0.0,91,0.00,,,0.00,meteohub,2018-05-22 02:15:00,
2018-05-21 22:20:00,61.3,58.6,30.14,SE,137,0.0,0.0,91,0.00,,,0.00,meteohub,2018-05-22 02:20:00,
2018-05-21 22:25:00,61.2,58.5,30.14,SE,136,0.0,0.0,91,0.00,,,0.00,meteohub,2018-05-22 02:25:00,
2018-05-21 22:30:00,61.0,58.3,30.14,SE,136,0.0,0.0,91,0.00,,,0.00,meteohub,2018-05-22 02:30:00,
2018-05-21 22:35:00,61.0,58.3,30.14,SE,136,0.0,0.0,91,0.00,,,0.00,meteohub,2018-05-22 02:35:00,
2018-05-21 22:40:00,60.8,58.5,30.14,SE,137,0.0,0.0,92,0.00,,,0.00,meteohub,2018-05-22 02:40:00,
2018-05-21 22:45:00,60.8,58.5,30.14,SE,136,0.0,0.0,92,0.00,,,0.00,meteohub,2018-05-22 02:45:00,
2018-05-21 22:50:00,60.6,58.3,30.14,SE,137,0.0,0.0,92,0.00,,,0.00,meteohub,2018-05-22 02:50:00,
2018-05-21 22:55:00,60.4,58.1,30.14,SE,136,0.0,0.0,92,0.00,,,0.00,meteohub,2018-05-22 02:55:00,
2018-05-21 23:00:00,60.3,58.3,30.14,SE,136,0.0,0.0,93,0.00,,,0.00,meteohub,2018-05-22 03:00:00,
2018-05-21 23:05:00,60.1,58.1,30.14,SE,136,0.0,0.0,93,0.00,,,0.00,meteohub,2018-05-22 03:05:00,
2018-05-21 23:10:00,60.1,58.1,30.14,SE,136,0.0,0.0,93,0.00,,,0.00,meteohub,2018-05-22 03:10:00,
2018-05-21 23:15:00,59.9,58.1,30.14,SE,136,0.0,0.0,94,0.00,,,0.00,meteohub,2018-05-22 03:15:00,